Home   Weather   Kakata   Past weeks
Flag for Liberia

Past Weather in Kakata, Liberia — Yesterday and Last 2 Weeks

Now
77 °F

Thunderstorms. Passing clouds.


Feels Like: 78 °F
Forecast: 85 / 74 °F
Wind: N/A

Location: Roberts Field

Current Time: Oct 22, 2019 at 2:19:38 am

Latest Report: Oct 22, 2019 at 1:30 am


Visibility: 6 mi

Pressure: 29.83 "Hg

Humidity: 94%

Dew Point: 75 °F

Location of KakataLocation

Past Weather in Kakata — Graph

°F

Kakata Temperature Yesterday

Maximum temperature yesterday: 90 °F (at 2:00 pm)
Minimum temperature yesterday: 77 °F (at 12:00 am)
Average temperature yesterday: 81 °F

High & Low Weather Summary for the Past Weeks

 TemperatureHumidityPressure
High90 °F (Oct 10, 11:30 am)100% (Oct 7, 3:00 am)29.95 "Hg (Oct 7, 3:00 am)
Low72 °F (Oct 19, 7:30 am)59% (Oct 19, 2:30 pm)29.74 "Hg (Oct 10, 4:00 pm)
Average80 °F87%29.86 "Hg
* Reported Oct 7 2:00 am — Oct 22 1:00 am, Kakata. Weather by CustomWeather, © 2019

Note: Actual official high and low records may vary slightly from our data, if they occured in-between our weather recording intervals... More about our weather records

Advertising

Kakata Weather History for the Previous 24 Hours

Scroll right to see more
 ConditionsComfort  
Time TempWeatherWind HumidityBarometerVisibility
1:00 am
Tue, Oct 22
77 °FThunderstorms. Passing clouds.N/A94%29.86 "Hg4 mi
12:30 am77 °FPassing clouds.N/A94%29.89 "HgN/A
12:00 am77 °FPassing clouds.N/A94%29.89 "HgN/A
11:30 pm
Mon, Oct 21
77 °FPassing clouds.N/A94%29.89 "HgN/A
11:00 pm77 °FPassing clouds.N/A94%29.89 "HgN/A
10:00 pm77 °FPassing clouds.N/A94%29.89 "HgN/A
9:30 pm77 °FPassing clouds.N/A94%29.89 "HgN/A
9:00 pm77 °FPassing clouds.N/A94%29.89 "HgN/A
8:30 pm79 °FPassing clouds.N/A94%29.86 "HgN/A
8:00 pm79 °FPassing clouds.N/A94%29.83 "HgN/A
7:30 pm79 °FPassing clouds.N/A94%29.83 "HgN/A
7:00 pm81 °FScattered clouds.N/A84%29.83 "HgN/A
6:30 pm81 °FScattered clouds.N/A89%29.83 "HgN/A
6:00 pm82 °FScattered clouds.N/A84%29.83 "HgN/A
5:30 pm84 °FScattered clouds.N/A79%29.80 "HgN/A
5:00 pm86 °FScattered clouds.N/A75%29.80 "HgN/A
4:30 pm88 °FScattered clouds.N/A70%29.80 "HgN/A
4:00 pm88 °FScattered clouds.N/A70%29.80 "HgN/A
3:30 pm90 °FScattered clouds.N/A67%29.80 "HgN/A
3:00 pm90 °FScattered clouds.N/A67%29.83 "HgN/A
2:30 pm90 °FScattered clouds.N/A67%29.83 "HgN/A
2:00 pm90 °FPartly sunny.N/A67%29.83 "HgN/A
1:30 pm88 °FPartly sunny.N/A66%29.86 "HgN/A
1:00 pm88 °FPartly sunny.N/A66%29.86 "HgN/A
12:30 pm86 °FPartly sunny.N/A70%29.86 "HgN/A
12:00 pm84 °FPartly sunny.N/A79%29.89 "HgN/A
11:30 am86 °FPartly sunny.N/A70%29.89 "HgN/A
11:00 am86 °FPartly sunny.N/A70%29.92 "HgN/A
10:00 am82 °FPartly sunny.N/A89%29.92 "HgN/A
9:30 am81 °FThunderstorms. Partly sunny.N/A89%29.92 "HgN/A
9:00 am79 °FThunderstorms. Partly sunny.N/A94%29.92 "HgN/A
8:30 am79 °FThunderstorms. Partly sunny.N/A94%29.92 "HgN/A
8:00 am77 °FThunderstorms. Partly sunny.N/A94%29.92 "Hg6 mi
7:30 am77 °FThunderstorms. Partly sunny.N/A94%29.89 "Hg4 mi
7:00 am77 °FThunderstorms. Passing clouds.N/A94%29.89 "Hg4 mi
6:30 am77 °FThunderstorms. Passing clouds.N/A94%29.86 "HgN/A
6:00 am77 °FThunderstorms. Passing clouds.N/A94%29.83 "HgN/A
5:30 am77 °FThunderstorms. Passing clouds.N/A94%29.83 "HgN/A
4:30 am77 °FPassing clouds.N/A94%29.83 "HgN/A
4:00 am77 °FPassing clouds.N/A94%29.83 "HgN/A
3:30 am77 °FPassing clouds.N/A94%29.83 "HgN/A
2:30 am77 °FPassing clouds.N/A94%29.83 "HgN/A
2:00 am77 °FPassing clouds.N/A94%29.86 "HgN/A
Weather by CustomWeather, © 2019

See weather overview